Year,Month,Day,Hour,Minute,Value (Times are PST for temperature in C)
2009,07,25,00,00,16.90
2009,07,25,00,01,16.80
2009,07,25,00,02,16.80
2009,07,25,00,03,16.90
2009,07,25,00,04,16.90
2009,07,25,00,05,16.90
2009,07,25,00,06,16.80
2009,07,25,00,07,16.80
2009,07,25,00,08,16.70
2009,07,25,00,09,16.60
2009,07,25,00,10,16.50
2009,07,25,00,11,16.40
2009,07,25,00,12,16.40
2009,07,25,00,13,16.40
2009,07,25,00,14,16.50
2009,07,25,00,15,16.60
2009,07,25,00,16,16.80
2009,07,25,00,17,16.90
2009,07,25,00,18,17.00
2009,07,25,00,19,17.00
2009,07,25,00,20,17.00
2009,07,25,00,21,17.10
2009,07,25,00,22,17.20
2009,07,25,00,23,17.30
2009,07,25,00,24,17.40
2009,07,25,00,25,17.50
2009,07,25,00,26,17.50
2009,07,25,00,27,17.50
2009,07,25,00,28,17.50
2009,07,25,00,29,17.60
2009,07,25,00,30,17.60
2009,07,25,00,31,17.70
2009,07,25,00,32,17.80
2009,07,25,00,33,17.90
2009,07,25,00,34,18.00
2009,07,25,00,35,18.10
2009,07,25,00,36,18.20
2009,07,25,00,37,18.20
2009,07,25,00,38,18.30
2009,07,25,00,39,18.40
2009,07,25,00,40,18.50
2009,07,25,00,41,18.50
2009,07,25,00,42,18.60
2009,07,25,00,43,18.60
2009,07,25,00,44,18.70
2009,07,25,00,45,18.70
2009,07,25,00,46,18.70
2009,07,25,00,47,18.70
2009,07,25,00,48,18.60
2009,07,25,00,49,18.60
2009,07,25,00,50,18.60
2009,07,25,00,51,18.60
2009,07,25,00,52,18.50
2009,07,25,00,53,18.40
2009,07,25,00,54,18.30
2009,07,25,00,55,18.20
2009,07,25,00,56,18.10
2009,07,25,00,57,18.00
2009,07,25,00,58,17.90
2009,07,25,00,59,17.80
2009,07,25,01,00,17.80
2009,07,25,01,01,17.70
2009,07,25,01,02,17.70
2009,07,25,01,03,17.60
2009,07,25,01,04,17.60
2009,07,25,01,05,17.50
2009,07,25,01,06,17.50
2009,07,25,01,07,17.40
2009,07,25,01,08,17.40
2009,07,25,01,09,17.40
2009,07,25,01,10,17.40
2009,07,25,01,11,17.40
2009,07,25,01,12,17.40
2009,07,25,01,13,17.40
2009,07,25,01,14,17.40
2009,07,25,01,15,17.40
2009,07,25,01,16,17.40
2009,07,25,01,17,17.40
2009,07,25,01,18,17.40
2009,07,25,01,19,17.40
2009,07,25,01,20,17.40
2009,07,25,01,21,17.40
2009,07,25,01,22,17.50
2009,07,25,01,23,17.60
2009,07,25,01,24,17.60
2009,07,25,01,25,17.60
2009,07,25,01,26,17.60
2009,07,25,01,27,17.60
2009,07,25,01,28,17.60
2009,07,25,01,29,17.60
2009,07,25,01,30,17.60
2009,07,25,01,31,17.60
2009,07,25,01,32,17.60
2009,07,25,01,33,17.60
2009,07,25,01,34,17.60
2009,07,25,01,35,17.60
2009,07,25,01,36,17.60
2009,07,25,01,37,17.50
2009,07,25,01,38,17.50
2009,07,25,01,39,17.50
2009,07,25,01,40,17.40
2009,07,25,01,41,17.40
2009,07,25,01,42,17.40
2009,07,25,01,43,17.40
2009,07,25,01,44,17.40
2009,07,25,01,45,17.40
2009,07,25,01,46,17.40
2009,07,25,01,47,17.40
2009,07,25,01,48,17.40
2009,07,25,01,49,17.40
2009,07,25,01,50,17.40
2009,07,25,01,51,17.30
2009,07,25,01,52,17.30
2009,07,25,01,53,17.30
2009,07,25,01,54,17.20
2009,07,25,01,55,17.20
2009,07,25,01,56,17.10
2009,07,25,01,57,17.00
2009,07,25,01,58,17.00
2009,07,25,01,59,16.90
2009,07,25,02,00,16.80
2009,07,25,02,01,16.80
2009,07,25,02,02,16.70
2009,07,25,02,03,16.60
2009,07,25,02,04,16.50
2009,07,25,02,05,16.40
2009,07,25,02,06,16.30
2009,07,25,02,07,16.20
2009,07,25,02,08,16.20
2009,07,25,02,09,16.20
2009,07,25,02,10,16.10
2009,07,25,02,11,16.00
2009,07,25,02,12,16.00
2009,07,25,02,13,15.90
2009,07,25,02,14,15.90
2009,07,25,02,15,15.90
2009,07,25,02,16,15.90
2009,07,25,02,17,15.90
2009,07,25,02,18,15.80
2009,07,25,02,19,15.80
2009,07,25,02,20,15.80
2009,07,25,02,21,15.80
2009,07,25,02,22,15.80
2009,07,25,02,23,15.80
2009,07,25,02,24,15.70
2009,07,25,02,25,15.70
2009,07,25,02,26,15.70
2009,07,25,02,27,15.70
2009,07,25,02,28,15.70
2009,07,25,02,29,15.60
2009,07,25,02,30,15.60
2009,07,25,02,31,15.60
2009,07,25,02,32,15.60
2009,07,25,02,33,15.50
2009,07,25,02,34,15.50
2009,07,25,02,35,15.50
2009,07,25,02,36,15.40
2009,07,25,02,37,15.40
2009,07,25,02,38,15.40
2009,07,25,02,39,15.40
2009,07,25,02,40,15.30
2009,07,25,02,41,15.30
2009,07,25,02,42,15.30
2009,07,25,02,43,15.20
2009,07,25,02,44,15.20
2009,07,25,02,45,15.20
2009,07,25,02,46,15.20
2009,07,25,02,47,15.10
2009,07,25,02,48,15.10
2009,07,25,02,49,15.10
2009,07,25,02,50,15.00
2009,07,25,02,51,15.00
2009,07,25,02,52,15.00
2009,07,25,02,53,15.00
2009,07,25,02,54,15.00
2009,07,25,02,55,15.00
2009,07,25,02,56,15.00
2009,07,25,02,57,15.00
2009,07,25,02,58,15.00
2009,07,25,02,59,15.00
2009,07,25,03,00,15.00
2009,07,25,03,01,15.00
2009,07,25,03,02,15.00
2009,07,25,03,03,15.00
2009,07,25,03,04,15.00
2009,07,25,03,05,15.00
2009,07,25,03,06,15.00
2009,07,25,03,07,15.00
2009,07,25,03,08,15.00
2009,07,25,03,09,15.00
2009,07,25,03,10,15.00
2009,07,25,03,11,15.00
2009,07,25,03,12,15.00
2009,07,25,03,13,15.00
2009,07,25,03,14,15.00
2009,07,25,03,15,14.90
2009,07,25,03,16,14.80
2009,07,25,03,17,14.80
2009,07,25,03,18,14.70
2009,07,25,03,19,14.60
2009,07,25,03,20,14.60
2009,07,25,03,21,14.50
2009,07,25,03,22,14.40
2009,07,25,03,23,14.40
2009,07,25,03,24,14.40
2009,07,25,03,25,14.30
2009,07,25,03,26,14.30
2009,07,25,03,27,14.30
2009,07,25,03,28,14.20
2009,07,25,03,29,14.20
2009,07,25,03,30,14.20
2009,07,25,03,31,14.10
2009,07,25,03,32,14.10
2009,07,25,03,33,14.00
2009,07,25,03,34,14.00
2009,07,25,03,35,14.00
2009,07,25,03,36,13.90
2009,07,25,03,37,13.90
2009,07,25,03,38,13.80
2009,07,25,03,39,13.80
2009,07,25,03,40,13.80
2009,07,25,03,41,13.80
2009,07,25,03,42,13.80
2009,07,25,03,43,13.80
2009,07,25,03,44,13.80
2009,07,25,03,45,13.80
2009,07,25,03,46,13.80
2009,07,25,03,47,13.80
2009,07,25,03,48,13.80
2009,07,25,03,49,13.80
2009,07,25,03,50,13.80
2009,07,25,03,51,13.80
2009,07,25,03,52,13.80
2009,07,25,03,53,13.80
2009,07,25,03,54,13.80
2009,07,25,03,55,13.80
2009,07,25,03,56,13.80
2009,07,25,03,57,13.80
2009,07,25,03,58,13.70
2009,07,25,03,59,13.70
2009,07,25,04,00,13.70
2009,07,25,04,01,13.70
2009,07,25,04,02,13.70
2009,07,25,04,03,13.80
2009,07,25,04,04,13.80
2009,07,25,04,05,13.80
2009,07,25,04,06,13.80
2009,07,25,04,07,13.90
2009,07,25,04,08,13.90
2009,07,25,04,09,13.90
2009,07,25,04,10,14.00
2009,07,25,04,11,14.00
2009,07,25,04,12,14.00
2009,07,25,04,13,14.00
2009,07,25,04,14,14.00
2009,07,25,04,15,13.90
2009,07,25,04,16,13.90
2009,07,25,04,17,13.90
2009,07,25,04,18,14.00
2009,07,25,04,19,14.00
2009,07,25,04,20,14.00
2009,07,25,04,21,14.00
2009,07,25,04,22,14.10
2009,07,25,04,23,14.10
2009,07,25,04,24,14.10
2009,07,25,04,25,14.20
2009,07,25,04,26,14.20
2009,07,25,04,27,14.30
2009,07,25,04,28,14.30
2009,07,25,04,29,14.30
2009,07,25,04,30,14.40
2009,07,25,04,31,14.40
2009,07,25,04,32,14.50
2009,07,25,04,33,14.50
2009,07,25,04,34,14.60
2009,07,25,04,35,14.70
2009,07,25,04,36,14.80
2009,07,25,04,37,14.80
2009,07,25,04,38,14.90
2009,07,25,04,39,14.90
2009,07,25,04,40,14.90
2009,07,25,04,41,14.90
2009,07,25,04,42,14.90
2009,07,25,04,43,14.90
2009,07,25,04,44,14.80
2009,07,25,04,45,14.80
2009,07,25,04,46,14.80
2009,07,25,04,47,14.70
2009,07,25,04,48,14.70
2009,07,25,04,49,14.80
2009,07,25,04,50,14.70
2009,07,25,04,51,14.70
2009,07,25,04,52,14.70
2009,07,25,04,53,14.60
2009,07,25,04,54,14.60
2009,07,25,04,55,14.50
2009,07,25,04,56,14.50
2009,07,25,04,57,14.40
2009,07,25,04,58,14.40
2009,07,25,04,59,14.30
2009,07,25,05,00,14.30
2009,07,25,05,01,14.30
2009,07,25,05,02,14.30
2009,07,25,05,03,14.20
2009,07,25,05,04,14.20
2009,07,25,05,05,14.20
2009,07,25,05,06,14.10
2009,07,25,05,07,14.10
2009,07,25,05,08,14.10
2009,07,25,05,09,14.10
2009,07,25,05,10,14.10
2009,07,25,05,11,14.10
2009,07,25,05,12,14.10
2009,07,25,05,13,14.00
2009,07,25,05,14,14.00
2009,07,25,05,15,14.00
2009,07,25,05,16,14.00
2009,07,25,05,17,14.00
2009,07,25,05,18,14.00
2009,07,25,05,19,14.00
2009,07,25,05,20,14.00
2009,07,25,05,21,14.00
2009,07,25,05,22,14.00
2009,07,25,05,23,13.90
2009,07,25,05,24,13.90
2009,07,25,05,25,14.00
2009,07,25,05,26,14.00
2009,07,25,05,27,14.10
2009,07,25,05,28,14.10
2009,07,25,05,29,14.10
2009,07,25,05,30,14.10
2009,07,25,05,31,14.10
2009,07,25,05,32,14.10
2009,07,25,05,33,14.20
2009,07,25,05,34,14.20
2009,07,25,05,35,14.20
2009,07,25,05,36,14.20
2009,07,25,05,37,14.20
2009,07,25,05,38,14.20
2009,07,25,05,39,14.20
2009,07,25,05,40,14.30
2009,07,25,05,41,14.30
2009,07,25,05,42,14.30
2009,07,25,05,43,14.30
2009,07,25,05,44,14.30
2009,07,25,05,45,14.30
2009,07,25,05,46,14.40
2009,07,25,05,47,14.40
2009,07,25,05,48,14.50
2009,07,25,05,49,14.50
2009,07,25,05,50,14.50
2009,07,25,05,51,14.50
2009,07,25,05,52,14.50
2009,07,25,05,53,14.40
2009,07,25,05,54,14.40
2009,07,25,05,55,14.40
2009,07,25,05,56,14.40
2009,07,25,05,57,14.40
2009,07,25,05,58,14.50
2009,07,25,05,59,14.50
2009,07,25,06,00,14.50
2009,07,25,06,01,14.50
2009,07,25,06,02,14.50
2009,07,25,06,03,14.50
2009,07,25,06,04,14.50
2009,07,25,06,05,14.60
2009,07,25,06,06,14.60
2009,07,25,06,07,14.60
2009,07,25,06,08,14.60
2009,07,25,06,09,14.70
2009,07,25,06,10,14.70
2009,07,25,06,11,14.70
2009,07,25,06,12,14.70
2009,07,25,06,13,14.70
2009,07,25,06,14,14.80
2009,07,25,06,15,14.80
2009,07,25,06,16,14.90
2009,07,25,06,17,14.90
2009,07,25,06,18,14.90
2009,07,25,06,19,15.00
2009,07,25,06,20,14.90
2009,07,25,06,21,14.90
2009,07,25,06,22,14.90
2009,07,25,06,23,14.90
2009,07,25,06,24,14.80
2009,07,25,06,25,14.80
2009,07,25,06,26,14.80
2009,07,25,06,27,14.80
2009,07,25,06,28,14.70
2009,07,25,06,29,14.70
2009,07,25,06,30,14.70
2009,07,25,06,31,14.70
2009,07,25,06,32,14.70
2009,07,25,06,33,14.60
2009,07,25,06,34,14.60
2009,07,25,06,35,14.60
2009,07,25,06,36,14.60
2009,07,25,06,37,14.60
2009,07,25,06,38,14.60
2009,07,25,06,39,14.60
2009,07,25,06,40,14.60
2009,07,25,06,41,14.60
2009,07,25,06,42,14.60
2009,07,25,06,43,14.60
2009,07,25,06,44,14.60
2009,07,25,06,45,14.60
2009,07,25,06,46,14.60
2009,07,25,06,47,14.70
2009,07,25,06,48,14.70
2009,07,25,06,49,14.70
2009,07,25,06,50,14.70
2009,07,25,06,51,14.70
2009,07,25,06,52,14.70
2009,07,25,06,53,14.70
2009,07,25,06,54,14.70
2009,07,25,06,55,14.80
2009,07,25,06,56,14.80
2009,07,25,06,57,14.80
2009,07,25,06,58,14.80
2009,07,25,06,59,14.80
2009,07,25,07,00,14.90
2009,07,25,07,01,14.90
2009,07,25,07,02,14.90
2009,07,25,07,03,14.90
2009,07,25,07,04,15.00
2009,07,25,07,05,15.00
2009,07,25,07,06,15.00
2009,07,25,07,07,15.00
2009,07,25,07,08,15.00
2009,07,25,07,09,15.00
2009,07,25,07,10,15.00
2009,07,25,07,11,15.00
2009,07,25,07,12,15.10
2009,07,25,07,13,15.20
2009,07,25,07,14,15.30
2009,07,25,07,15,15.30
2009,07,25,07,16,15.30
2009,07,25,07,17,15.40
2009,07,25,07,18,15.50
2009,07,25,07,19,15.60
2009,07,25,07,20,15.70
2009,07,25,07,21,15.70
2009,07,25,07,22,15.70
2009,07,25,07,23,15.80
2009,07,25,07,24,15.80
2009,07,25,07,25,15.80
2009,07,25,07,26,15.90
2009,07,25,07,27,16.00
2009,07,25,07,28,16.10
2009,07,25,07,29,16.10
2009,07,25,07,30,16.20
2009,07,25,07,31,16.20
2009,07,25,07,32,16.20
2009,07,25,07,33,16.20
2009,07,25,07,34,16.20
2009,07,25,07,35,16.30
2009,07,25,07,36,16.30
2009,07,25,07,37,16.30
2009,07,25,07,38,16.30
2009,07,25,07,39,16.30
2009,07,25,07,40,16.30
2009,07,25,07,41,16.30
2009,07,25,07,42,16.30
2009,07,25,07,43,16.30
2009,07,25,07,44,16.30
2009,07,25,07,45,16.30
2009,07,25,07,46,16.30
2009,07,25,07,47,16.30
2009,07,25,07,48,16.30
2009,07,25,07,49,16.30
2009,07,25,07,50,16.30
2009,07,25,07,51,16.30
2009,07,25,07,52,16.30
2009,07,25,07,53,16.30
2009,07,25,07,54,16.40
2009,07,25,07,55,16.40
2009,07,25,07,56,16.40
2009,07,25,07,57,16.40
2009,07,25,07,58,16.40
2009,07,25,07,59,16.40
2009,07,25,08,00,16.50
2009,07,25,08,01,16.60
2009,07,25,08,02,16.60
2009,07,25,08,03,16.70
2009,07,25,08,04,16.80
2009,07,25,08,05,16.90
2009,07,25,08,06,17.00
2009,07,25,08,07,17.10
2009,07,25,08,08,17.30
2009,07,25,08,09,17.40
2009,07,25,08,10,17.50
2009,07,25,08,11,17.60
2009,07,25,08,12,17.70
2009,07,25,08,13,17.80
2009,07,25,08,14,17.90
2009,07,25,08,15,18.00
2009,07,25,08,16,18.10
2009,07,25,08,17,18.20
2009,07,25,08,18,18.20
2009,07,25,08,19,18.30
2009,07,25,08,20,18.40
2009,07,25,08,21,18.50
2009,07,25,08,22,18.60
2009,07,25,08,23,18.70
2009,07,25,08,24,18.80
2009,07,25,08,25,18.90
2009,07,25,08,26,19.00
2009,07,25,08,27,19.00
2009,07,25,08,28,19.20
2009,07,25,08,29,19.30
2009,07,25,08,30,19.40
2009,07,25,08,31,19.60
2009,07,25,08,32,19.70
2009,07,25,08,33,19.80
2009,07,25,08,34,19.90
2009,07,25,08,35,19.90
2009,07,25,08,36,20.00
2009,07,25,08,37,20.10
2009,07,25,08,38,20.20
2009,07,25,08,39,20.30
2009,07,25,08,40,20.30
2009,07,25,08,41,20.40
2009,07,25,08,42,20.40
2009,07,25,08,43,20.40
2009,07,25,08,44,20.40
2009,07,25,08,45,20.40
2009,07,25,08,46,20.40
2009,07,25,08,47,20.30
2009,07,25,08,48,20.30
2009,07,25,08,49,20.30
2009,07,25,08,50,20.30
2009,07,25,08,51,20.30
2009,07,25,08,52,20.30
2009,07,25,08,53,20.30
2009,07,25,08,54,20.30
2009,07,25,08,55,20.30
2009,07,25,08,56,20.30
2009,07,25,08,57,20.40
2009,07,25,08,58,20.40
2009,07,25,08,59,20.50
2009,07,25,09,00,20.50
2009,07,25,09,01,20.60
2009,07,25,09,02,20.70
2009,07,25,09,03,20.70
2009,07,25,09,04,20.70
2009,07,25,09,05,20.70
2009,07,25,09,06,20.70
2009,07,25,09,07,20.70
2009,07,25,09,08,20.70
2009,07,25,09,09,20.80
2009,07,25,09,10,20.80
2009,07,25,09,11,20.80
2009,07,25,09,12,20.70
2009,07,25,09,13,20.70
2009,07,25,09,14,20.70
2009,07,25,09,15,20.70
2009,07,25,09,16,20.60
2009,07,25,09,17,20.60
2009,07,25,09,18,20.60
2009,07,25,09,19,20.60
2009,07,25,09,20,20.60
2009,07,25,09,21,20.70
2009,07,25,09,22,20.70
2009,07,25,09,23,20.70
2009,07,25,09,24,20.70
2009,07,25,09,25,20.80
2009,07,25,09,26,20.80
2009,07,25,09,27,20.80
2009,07,25,09,28,20.80
2009,07,25,09,29,20.80
2009,07,25,09,30,20.80
2009,07,25,09,31,20.90
2009,07,25,09,32,20.90
2009,07,25,09,33,20.90
2009,07,25,09,34,21.00
2009,07,25,09,35,21.00
2009,07,25,09,36,21.10
2009,07,25,09,37,21.20
2009,07,25,09,38,21.30
2009,07,25,09,39,21.40
2009,07,25,09,40,21.60
2009,07,25,09,41,21.70
2009,07,25,09,42,21.80
2009,07,25,09,43,21.90
2009,07,25,09,44,22.00
2009,07,25,09,45,22.00
2009,07,25,09,46,22.00
2009,07,25,09,47,21.90
2009,07,25,09,48,21.80
2009,07,25,09,49,21.70
2009,07,25,09,50,21.60
2009,07,25,09,51,21.40
2009,07,25,09,52,21.30
2009,07,25,09,53,21.30
2009,07,25,09,54,21.30
2009,07,25,09,55,21.30
2009,07,25,09,56,21.30
2009,07,25,09,57,21.30
2009,07,25,09,58,21.40
2009,07,25,09,59,21.40
2009,07,25,10,00,21.40
2009,07,25,10,01,21.50
2009,07,25,10,02,21.50
2009,07,25,10,03,21.40
2009,07,25,10,04,21.40
2009,07,25,10,05,21.30
2009,07,25,10,06,21.40
2009,07,25,10,07,21.40
2009,07,25,10,08,21.40
2009,07,25,10,09,21.40
2009,07,25,10,10,21.50
2009,07,25,10,11,21.60
2009,07,25,10,12,21.60
2009,07,25,10,13,21.60
2009,07,25,10,14,21.60
2009,07,25,10,15,21.50
2009,07,25,10,16,21.40
2009,07,25,10,17,21.30
2009,07,25,10,18,21.30
2009,07,25,10,19,21.30
2009,07,25,10,20,21.30
2009,07,25,10,21,21.30
2009,07,25,10,22,21.20
2009,07,25,10,23,21.20
2009,07,25,10,24,21.10
2009,07,25,10,25,21.10
2009,07,25,10,26,21.10
2009,07,25,10,27,21.10
2009,07,25,10,28,21.10
2009,07,25,10,29,21.10
2009,07,25,10,30,21.20
2009,07,25,10,31,21.20
2009,07,25,10,32,21.20
2009,07,25,10,33,21.20
2009,07,25,10,34,21.20
2009,07,25,10,35,21.20
2009,07,25,10,36,21.20
2009,07,25,10,37,21.30
2009,07,25,10,38,21.30
2009,07,25,10,39,21.30
2009,07,25,10,40,21.40
2009,07,25,10,41,21.40
2009,07,25,10,42,21.40
2009,07,25,10,43,21.40
2009,07,25,10,44,21.40
2009,07,25,10,45,21.50
2009,07,25,10,46,21.60
2009,07,25,10,47,21.70
2009,07,25,10,48,21.80
2009,07,25,10,49,21.80
2009,07,25,10,50,21.80
2009,07,25,10,51,21.80
2009,07,25,10,52,21.80
2009,07,25,10,53,21.90
2009,07,25,10,54,21.90
2009,07,25,10,55,22.00
2009,07,25,10,56,22.10
2009,07,25,10,57,22.20
2009,07,25,10,58,22.30
2009,07,25,10,59,22.30
2009,07,25,11,00,22.30
2009,07,25,11,01,22.40
2009,07,25,11,02,22.60
2009,07,25,11,03,22.70
2009,07,25,11,04,22.80
2009,07,25,11,05,22.90
2009,07,25,11,06,23.10
2009,07,25,11,07,23.20
2009,07,25,11,08,23.40
2009,07,25,11,09,23.40
2009,07,25,11,10,23.40
2009,07,25,11,11,23.40
2009,07,25,11,12,23.40
2009,07,25,11,13,23.50
2009,07,25,11,14,23.50
2009,07,25,11,15,23.60
2009,07,25,11,16,23.70
2009,07,25,11,17,23.90
2009,07,25,11,18,24.10
2009,07,25,11,19,24.20
2009,07,25,11,20,24.30
2009,07,25,11,21,24.30
2009,07,25,11,22,24.20
2009,07,25,11,23,24.00
2009,07,25,11,24,23.80
2009,07,25,11,25,23.60
2009,07,25,11,26,23.50
2009,07,25,11,27,23.40
2009,07,25,11,28,23.40
2009,07,25,11,29,23.20
2009,07,25,11,30,23.10
2009,07,25,11,31,23.10
2009,07,25,11,32,23.10
2009,07,25,11,33,23.20
2009,07,25,11,34,23.20
2009,07,25,11,35,23.30
2009,07,25,11,36,23.30
2009,07,25,11,37,23.30
2009,07,25,11,38,23.30
2009,07,25,11,39,23.40
2009,07,25,11,40,23.50
2009,07,25,11,41,23.60
2009,07,25,11,42,23.70
2009,07,25,11,43,23.70
2009,07,25,11,44,23.60
2009,07,25,11,45,23.40
2009,07,25,11,46,23.30
2009,07,25,11,47,23.20
2009,07,25,11,48,23.20
2009,07,25,11,49,23.20
2009,07,25,11,50,23.20
2009,07,25,11,51,23.10
2009,07,25,11,52,23.10
2009,07,25,11,53,23.30
2009,07,25,11,54,23.40
2009,07,25,11,55,23.50
2009,07,25,11,56,23.50
2009,07,25,11,57,23.50
2009,07,25,11,58,23.40
2009,07,25,11,59,23.30
2009,07,25,12,00,23.30
2009,07,25,12,01,23.20
2009,07,25,12,02,23.20
2009,07,25,12,03,23.30
2009,07,25,12,04,23.30
2009,07,25,12,05,23.30
2009,07,25,12,06,23.20
2009,07,25,12,07,23.20
2009,07,25,12,08,23.20
2009,07,25,12,09,23.30
2009,07,25,12,10,23.30
2009,07,25,12,11,23.20
2009,07,25,12,12,23.20
2009,07,25,12,13,23.20
2009,07,25,12,14,23.20
2009,07,25,12,15,23.10
2009,07,25,12,16,23.10
2009,07,25,12,17,23.20
2009,07,25,12,18,23.20
2009,07,25,12,19,23.30
2009,07,25,12,20,23.30
2009,07,25,12,21,23.40
2009,07,25,12,22,23.40
2009,07,25,12,23,23.50
2009,07,25,12,24,23.50
2009,07,25,12,25,23.50
2009,07,25,12,26,23.60
2009,07,25,12,27,23.70
2009,07,25,12,28,23.80
2009,07,25,12,29,23.90
2009,07,25,12,30,23.90
2009,07,25,12,31,24.10
2009,07,25,12,32,24.20
2009,07,25,12,33,24.40
2009,07,25,12,34,24.50
2009,07,25,12,35,24.70
2009,07,25,12,36,24.80
2009,07,25,12,37,24.80
2009,07,25,12,38,24.80
2009,07,25,12,39,24.40
2009,07,25,12,40,24.10
2009,07,25,12,41,23.90
2009,07,25,12,42,23.70
2009,07,25,12,43,23.50
2009,07,25,12,44,23.40
2009,07,25,12,45,23.50
2009,07,25,12,46,23.60
2009,07,25,12,47,23.70
2009,07,25,12,48,23.80
2009,07,25,12,49,23.80
2009,07,25,12,50,23.90
2009,07,25,12,51,24.00
2009,07,25,12,52,24.10
2009,07,25,12,53,24.20
2009,07,25,12,54,24.40
2009,07,25,12,55,24.60
2009,07,25,12,56,24.80
2009,07,25,12,57,24.90
2009,07,25,12,58,25.10
2009,07,25,12,59,25.20
2009,07,25,13,00,25.30
2009,07,25,13,01,25.20
2009,07,25,13,02,24.90
2009,07,25,13,03,24.60
2009,07,25,13,04,24.40
2009,07,25,13,05,24.40
2009,07,25,13,06,24.40
2009,07,25,13,07,24.40
2009,07,25,13,08,24.30
2009,07,25,13,09,24.30
2009,07,25,13,10,24.30
2009,07,25,13,11,24.40
2009,07,25,13,12,24.40
2009,07,25,13,13,24.40
2009,07,25,13,14,24.40
2009,07,25,13,15,24.50
2009,07,25,13,16,24.60
2009,07,25,13,17,24.70
2009,07,25,13,18,24.80
2009,07,25,13,19,25.00
2009,07,25,13,20,25.10
2009,07,25,13,21,25.20
2009,07,25,13,22,25.10
2009,07,25,13,23,25.00
2009,07,25,13,24,24.90
2009,07,25,13,25,24.80
2009,07,25,13,26,24.80
2009,07,25,13,27,24.80
2009,07,25,13,28,24.90
2009,07,25,13,29,24.90
2009,07,25,13,30,25.00
2009,07,25,13,31,25.00
2009,07,25,13,32,25.10
2009,07,25,13,33,25.20
2009,07,25,13,34,25.20
2009,07,25,13,35,25.20
2009,07,25,13,36,25.20
2009,07,25,13,37,25.20
2009,07,25,13,38,25.30
2009,07,25,13,39,25.40
2009,07,25,13,40,25.50
2009,07,25,13,41,25.60
2009,07,25,13,42,25.60
2009,07,25,13,43,25.70
2009,07,25,13,44,25.70
2009,07,25,13,45,25.70
2009,07,25,13,46,25.60
2009,07,25,13,47,25.40
2009,07,25,13,48,25.20
2009,07,25,13,49,25.10
2009,07,25,13,50,25.10
2009,07,25,13,51,25.20
2009,07,25,13,52,25.30
2009,07,25,13,53,25.50
2009,07,25,13,54,25.60
2009,07,25,13,55,25.60
2009,07,25,13,56,25.60
2009,07,25,13,57,25.70
2009,07,25,13,58,25.70
2009,07,25,13,59,25.80
2009,07,25,14,00,25.90
2009,07,25,14,01,25.90
2009,07,25,14,02,25.80
2009,07,25,14,03,25.70
2009,07,25,14,04,25.70
2009,07,25,14,05,25.70
2009,07,25,14,06,25.90
2009,07,25,14,07,26.00
2009,07,25,14,08,26.10
2009,07,25,14,09,26.20
2009,07,25,14,10,26.10
2009,07,25,14,11,26.00
2009,07,25,14,12,25.90
2009,07,25,14,13,25.90
2009,07,25,14,14,25.90
2009,07,25,14,15,25.90
2009,07,25,14,16,25.90
2009,07,25,14,17,26.00
2009,07,25,14,18,26.20
2009,07,25,14,19,26.40
2009,07,25,14,20,26.50
2009,07,25,14,21,26.60
2009,07,25,14,22,26.50
2009,07,25,14,23,26.40
2009,07,25,14,24,26.10
2009,07,25,14,25,25.90
2009,07,25,14,26,25.90
2009,07,25,14,27,25.90
2009,07,25,14,28,25.90
2009,07,25,14,29,25.60
2009,07,25,14,30,25.50
2009,07,25,14,31,25.50
2009,07,25,14,32,25.50
2009,07,25,14,33,25.40
2009,07,25,14,34,25.30
2009,07,25,14,35,25.40
2009,07,25,14,36,25.40
2009,07,25,14,37,25.50
2009,07,25,14,38,25.60
2009,07,25,14,39,25.70
2009,07,25,14,40,25.80
2009,07,25,14,41,25.90
2009,07,25,14,42,25.90
2009,07,25,14,43,25.90
2009,07,25,14,44,25.90
2009,07,25,14,45,25.90
2009,07,25,14,46,25.80
2009,07,25,14,47,25.70
2009,07,25,14,48,25.70
2009,07,25,14,49,25.60
2009,07,25,14,50,25.60
2009,07,25,14,51,25.50
2009,07,25,14,52,25.50
2009,07,25,14,53,25.40
2009,07,25,14,54,25.40
2009,07,25,14,55,25.30
2009,07,25,14,56,25.30
2009,07,25,14,57,25.40
2009,07,25,14,58,25.40
2009,07,25,14,59,25.60
2009,07,25,15,00,25.80
2009,07,25,15,01,25.90
2009,07,25,15,02,26.00
2009,07,25,15,03,26.00
2009,07,25,15,04,26.00
2009,07,25,15,05,25.90
2009,07,25,15,06,25.80
2009,07,25,15,07,25.70
2009,07,25,15,08,25.80
2009,07,25,15,09,25.90
2009,07,25,15,10,26.10
2009,07,25,15,11,26.10
2009,07,25,15,12,26.10
2009,07,25,15,13,26.10
2009,07,25,15,14,26.10
2009,07,25,15,15,26.10
2009,07,25,15,16,26.10
2009,07,25,15,17,26.20
2009,07,25,15,18,26.40
2009,07,25,15,19,26.50
2009,07,25,15,20,26.40
2009,07,25,15,21,26.20
2009,07,25,15,22,26.10
2009,07,25,15,23,26.20
2009,07,25,15,24,26.10
2009,07,25,15,25,26.00
2009,07,25,15,26,25.90
2009,07,25,15,27,25.90
2009,07,25,15,28,25.90
2009,07,25,15,29,25.90
2009,07,25,15,30,25.90
2009,07,25,15,31,26.00
2009,07,25,15,32,26.10
2009,07,25,15,33,26.20
2009,07,25,15,34,26.20
2009,07,25,15,35,26.10
2009,07,25,15,36,26.10
2009,07,25,15,37,26.10
2009,07,25,15,38,26.10
2009,07,25,15,39,26.10
2009,07,25,15,40,26.10
2009,07,25,15,41,26.20
2009,07,25,15,42,26.30
2009,07,25,15,43,26.40
2009,07,25,15,44,26.40
2009,07,25,15,45,26.40
2009,07,25,15,46,26.40
2009,07,25,15,47,26.40
2009,07,25,15,48,26.40
2009,07,25,15,49,26.40
2009,07,25,15,50,26.30
2009,07,25,15,51,26.10
2009,07,25,15,52,25.90
2009,07,25,15,53,25.90
2009,07,25,15,54,25.90
2009,07,25,15,55,25.80
2009,07,25,15,56,25.80
2009,07,25,15,57,25.70
2009,07,25,15,58,25.70
2009,07,25,15,59,25.80
2009,07,25,16,00,25.80
2009,07,25,16,01,25.70
2009,07,25,16,02,25.60
2009,07,25,16,03,25.50
2009,07,25,16,04,25.40
2009,07,25,16,05,25.40
2009,07,25,16,06,25.40
2009,07,25,16,07,25.30
2009,07,25,16,08,25.20
2009,07,25,16,09,25.00
2009,07,25,16,10,24.90
2009,07,25,16,11,24.80
2009,07,25,16,12,24.70
2009,07,25,16,13,24.70
2009,07,25,16,14,24.70
2009,07,25,16,15,24.60
2009,07,25,16,16,24.60
2009,07,25,16,17,24.50
2009,07,25,16,18,24.40
2009,07,25,16,19,24.50
2009,07,25,16,20,24.60
2009,07,25,16,21,24.50
2009,07,25,16,22,24.50
2009,07,25,16,23,24.40
2009,07,25,16,24,24.40
2009,07,25,16,25,24.50
2009,07,25,16,26,24.60
2009,07,25,16,27,24.70
2009,07,25,16,28,24.70
2009,07,25,16,29,24.60
2009,07,25,16,30,24.60
2009,07,25,16,31,24.60
2009,07,25,16,32,24.60
2009,07,25,16,33,24.60
2009,07,25,16,34,24.70
2009,07,25,16,35,24.70
2009,07,25,16,36,24.70
2009,07,25,16,37,24.70
2009,07,25,16,38,24.60
2009,07,25,16,39,24.60
2009,07,25,16,40,24.70
2009,07,25,16,41,24.70
2009,07,25,16,42,24.80
2009,07,25,16,43,24.80
2009,07,25,16,44,24.90
2009,07,25,16,45,24.90
2009,07,25,16,46,24.90
2009,07,25,16,47,24.90
2009,07,25,16,48,25.00
2009,07,25,16,49,25.00
2009,07,25,16,50,25.10
2009,07,25,16,51,25.20
2009,07,25,16,52,25.20
2009,07,25,16,53,25.30
2009,07,25,16,54,25.30
2009,07,25,16,55,25.30
2009,07,25,16,56,25.30
2009,07,25,16,57,25.30
2009,07,25,16,58,25.30
2009,07,25,16,59,25.30
2009,07,25,17,00,25.30
2009,07,25,17,01,25.30
2009,07,25,17,02,25.20
2009,07,25,17,03,25.20
2009,07,25,17,04,25.30
2009,07,25,17,05,25.40
2009,07,25,17,06,25.40
2009,07,25,17,07,25.50
2009,07,25,17,08,25.50
2009,07,25,17,09,25.60
2009,07,25,17,10,25.70
2009,07,25,17,11,25.80
2009,07,25,17,12,25.90
2009,07,25,17,13,25.90
2009,07,25,17,14,25.90
2009,07,25,17,15,25.90
2009,07,25,17,16,25.90
2009,07,25,17,17,25.90
2009,07,25,17,18,26.00
2009,07,25,17,19,26.10